STARLINK-30384, 57774

Orbit data source: Space-Track

STARLINK-30384, 57774 is a payload satellite owned by SpaceX/Seattle (US) in LEO that was launched on Mon, 04 Sep 2023 UTC via an FALCON 9 launch vehicle from the Air Force Eastern Test Range (AFETR). Payload-class satellites include a variety of spacecraft equipped with specific instruments for various scientific and technological missions. These include communications satellites like Starlink; space stations such as the ISS; scientific satellites like the Hubble; Earth observation satellites from companies like Planet Labs, Umbra, and HawkEye 360; GPS; miniature CubeSats for education and research; and military/defense satellites.

Loading next visibility...
Identifier
57774, 2023-134D
Orbit
LEO
Country
Flag of USUS
Related business
Manufacturer
SpaceX/Seattle
Mission
Operational Commercial Communications
Bus & Motor
STARLINK V2M, Unknown motor
Mass
730 kg wet, ~700 kg dry
Launch date (UTC)
2023-09-04 (2 years ago)
Launch vehicle
FALCON 9
Launch site
Air Force Eastern Test Range (AFETR)
Object type
Payload
Rocket body
Debris
Shape & HBR
Box + 2 Pan, 17.7 m
Radar Cross Section
33.884 m², Large (>1 m²)

Expand to show TLE details & history
Last TLE update: 19 hours ago

TLE from 19 hours ago
0 STARLINK-30384
1 57774U 23134D   25346.63882665 -.00001131  00000-0 -68704-4 0  9994
2 57774  43.0051 310.7677 0001074 269.3028  90.7692 15.02531759126378
Epoch: 2025-12-12T15:19Z
TLE epoch observation values (Epoch: 2025-12-12T15:19:54.622Z)
Latitude
0.00002°
Longitude
-0.78743°
Altitude
558.881 km
Speed
7.584 km/s
True Right ascension
20h 43m 04s
True Declination
0° 00' 00"
Sunlit
Object was in daylight at epoch
Visualization orbit readout
Latitude
Unknown
Longitude
Unknown
Altitude
Unknown
Speed
Unknown
Apparent Right ascension
Unknown
Apparent Declination
Unknown
Sunlit
N/A
Visualization observer readout
Local Sidereal Time
09:18:48
Azimuth
Unknown
Elevation
Unknown
Doppler factor
Unknown
Orbital elements
Apogee altitude
561.761 km
Perigee altitude
560.27 km
Semi-major axis
6,939.153 km
Eccentricity
0.00011
Inclination
43.0051°
RAAN
310.7677°
Arg. of periapsis
269.3028°
True anomaly
90.78151°
Mean anomaly
90.7692°
Eccentric anomaly
90.77535°
Mean motion
3.75477 °/min
Orbital period
95.88 mins
BSTAR
-0.000068704
Loading maneuver chart data...
Computing Atmospheric mass density...
Loading historical data...
Loading historical data...
Loading historical data...
Loading historical data...
Loading historical data...
Loading historical data...
Loading historical data...

Documentation

Showing up to 5 results
|